Regional Weather Roundup
Issued by NWS

Home | Current Version | Previous Version | Graphics & Text | Print | Product List | Glossary On
Versions: 1 2 3 4 5 6 7 8 9 10 11 12 13 14 15 16 17 18 19 20 21 22 23 24 25 26 27 28 29 30 31 32 33 34 35 36 37 38 39 40 41 42 43 44 45 46 47 48 49 50
000
ASUS43 KMKX 020828
RWRWI

WISCONSIN REGIONAL WEATHER ROUNDUP
NATIONAL WEATHER SERVICE MILWAUKEE/SULLIVAN WI
300 AM CDT TUE JUN 02 2015

NOTE: "FAIR" INDICATES FEW OR NO CLOUDS BELOW 12,000 FEET WITH NO
SIGNIFICANT WEATHER AND/OR OBSTRUCTIONS TO VISIBILITY.

WIZ001-002-006>008-014>016-023>028-020900-
NORTHWEST WISCONSIN

CITY           SKY/WX    TMP DP  RH WIND       PRES   REMARKS
SUPERIOR ARPT  CLOUDY    42  34  74 NE3       30.12S
ASHLAND        PTCLDY    35  35 100 CALM      30.13
HAYWARD        PTCLDY    53  37  54 S9        30.13F
SIREN          MOCLDY    51  41  69 S7        30.10S
CUMBERLAND     PTCLDY    46  41  81 SE5       30.13S
RICE LAKE      PTCLDY    51  39  63 SE9       30.14F
CHETEK         PTCLDY    48  40  73 SE6       30.14S
LADYSMITH      PTCLDY    47  39  75 E5        30.17F
EAU CLAIRE     PTCLDY    51  37  58 SE5       30.14F
MENOMONIE      PTCLDY    50  41  71 E5        30.14R
NEW RICHMOND   MOCLDY    54  40  58 SE7       30.11S
OSCEOLA        MOCLDY    53  43  68 E5        30.13S
$$

WIZ003>005-009-010-017-018-020900-
NORTH CENTRAL WISCONSIN

CITY           SKY/WX    TMP DP  RH WIND       PRES   REMARKS
MANITOWISH WTR PTCLDY    45  38  77 S5        30.18S
ARBOR VITAE    PTCLDY    47  38  70 CALM      30.18S
WOODRUFF       PTCLDY    47  38  70 CALM      30.18S
RHINELANDER    PTCLDY    40  35  83 CALM      30.19F
EAGLE RIVER    CLEAR     36  32  85 CALM      30.18S
LAND O LAKES   CLEAR     35  35  99 CALM      30.20S
PHILLIPS       MOCLDY    45  39  80 E3        30.16F
TOMAHAWK       CLEAR     36  34  94 CALM      30.19S
MEDFORD        CLEAR     45  39  81 SE5       30.17F
MERRILL        CLEAR     37  37  99 CALM      30.20S
$$

WIZ029-030-035-036-043>047-020900-
CENTRAL WISCONSIN

CITY           SKY/WX    TMP DP  RH WIND       PRES   REMARKS
WAUSAU         CLEAR     44  41  89 E3        30.18S
MOSINEE        CLEAR     41  39  93 SE3       30.20S
MARSHFIELD     CLEAR     46  37  71 E3        30.18F
STEVENS POINT  CLEAR     38  37  95 CALM      30.20F
WAUPACA        CLEAR     42  41  96 CALM      30.21S
WAUTOMA        CLEAR     38  38 100 CALM      30.21R
WISC RAPIDS    CLEAR     41  36  82 CALM      30.20S
CAMP DOUGLAS   CLEAR     37  37 100 SE3       30.17F
$$

WIZ011>013-019>022-031-037>040-048>050-020900-
NORTHEAST WISCONSIN

CITY           SKY/WX    TMP DP  RH WIND       PRES   REMARKS
ANTIGO         CLEAR     39  38  97 CALM      30.20S
SHAWANO        CLEAR     42  40  93 CALM      30.20F
OCONTO         CLEAR     36  36 100 CALM      30.19F
STURGEON BAY   CLEAR     45  32  61 CALM      30.22S
GREEN BAY      CLEAR     43  41  93 CALM      30.20S
MANITOWOC      CLEAR     42  40  92 CALM      30.21S
APPLETON       CLEAR     46  34  61 CALM      30.20S
CLINTONVILLE   CLEAR     41  41 100 CALM      30.20F
OSHKOSH        CLEAR     42  38  85 CALM      30.19S
$$

WIZ032>034-041-042-053>061-020900-
SOUTHWEST WISCONSIN

CITY           SKY/WX    TMP DP  RH WIND       PRES   REMARKS
LA CROSSE      CLEAR     53  37  54 SE7       30.16S
SPARTA         CLEAR     37  37  97 CALM      30.18S
VIROQUA        CLEAR     48  34  59 SE7       30.17F
BOSCOBEL       CLEAR     41  38  89 CALM      30.19R
PRAIRIE DU CHI CLEAR     49  36  60 CALM      30.17S
PLATTEVILLE    CLEAR     47  39  73 E9        30.18S
$$

WIZ056-057-062-063-064-067-068-020900-
SOUTH CENTRAL WISCONSIN

CITY           SKY/WX    TMP DP  RH WIND       PRES   REMARKS
REEDSBURG      CLEAR     41  40  95 CALM      30.19S
BARABOO/DELLS  CLEAR     41  35  77 CALM      30.19R
LONE ROCK      CLEAR     43  39  86 CALM      30.20S
MINERAL POINT  CLEAR     46  36  66 SE7       30.19S
MADISON        CLEAR     42  35  76 CALM      30.19S
MIDDLETON      CLEAR     46  37  71 CALM      30.20S
WATERTOWN      CLEAR     40  38  93 CALM      30.19S
MONROE         CLEAR     46  36  66 SE6       30.19S
JANESVILLE     CLEAR     43  39  87 CALM      30.18S
$$

WIZ051-052-058>065-066-070>072-020900-
SOUTHEAST WISCONSIN

CITY           SKY/WX    TMP DP  RH WIND       PRES   REMARKS
MILWAUKEE      CLEAR     45  35  68 NW6       30.19S
WAUKESHA       CLEAR     37  34  87 CALM      30.20S
MILWAUKEE/TIMM CLEAR     43  34  70 CALM      30.21S
RACINE         CLEAR     43  37  79 CALM      30.21R
BURLINGTON     CLEAR     37  35  94 CALM      30.19S
KENOSHA        CLEAR     43  37  79 N3        30.19S
FOND DU LAC    CLEAR     40  38  93 CALM      30.20R
SHEBOYGAN      CLEAR     40  38  93 CALM      30.20S
WEST BEND      CLEAR     39  36  87 CALM      30.20S
JUNEAU         CLEAR     44  36  74 E6        30.21R
$$

LSZ147-162-020900-
LAKE SUPERIOR

STATION/POSITION TIME  TEMP    WIND        PRES    WAVE
                       AIR SEA DIR/SP/G            HT/PER
                 (UTC) (F)     (DEG/KT/KT) (MB)    (FT/S)
W MID LAKE BUOY  0750   39 37  190/  4/  4   N/A     1
DEVILS ISLAND    0800   42     100/  5/  5   N/A
PORT WING        0740   42     120/  1/  2   N/A
SAXON HARBOR     0740   53     200/  4/ 10   N/A
$$

LMZ867-665-643>646-020900-
LAKE MICHIGAN

STATION/POSITION TIME  TEMP    WIND        PRES    WAVE
                       AIR SEA DIR/SP/G            HT/PER
                 (UTC) (F)     (DEG/KT/KT) (MB)    (FT/S)
CHAMBERS ISLAND  0600   41      CALM  /  1   N/A
N MID LAKE BUOY  0750   43 37  180/  6/  8   N/A     0
NORTHPORT PIER   0700   51     100/  5/  7   N/A
SISTER BAY       0718   42        CALM       N/A
ALGOMA LAKESHORE 0709             CALM       N/A
KEWAUNEE LAKESHO 0800   41     310/  3/  5   N/A
SHEBOYGAN LAKESH 0800   49     330/  3/  3   N/A
PORT WASHINGTON  0740   45     280/  3/  4   N/A
ATWATER BUOY     0800   47     310/  4/  4   N/A
MILWAUKEE LAKESH 0800   48     340/  5/  6   N/A
S MID LAKE BUOY  0750   44 38   60/  8/  8   N/A     1/ 4
KENOSHA   LAKESH 0800   47      10/  2/  4   N/A
$$

TC  - TEMPERATURE IN CELSIUS
VSB - VISIBILITY IN STATUTE MILES
WCI - WIND CHILL INDEX
HX  - HEAT INDEX



USA.gov is the U.S. government's official web portal to all federal, state and local government web resources and services.